Location: Campestrin
(46.4667°N, 11.7167°E)
Time: 11:16:30
(UTC+00:00)

Cosmos 2228 - Pass Details

Date: 18 April 2021
Orbit: 587 x 619 km, 82.5° (Epoch: 07 May)

Event Time Altitude Azimuth Distance (km) Brightness Sun altitude
Rises 18:31:41 0° 184° (S) 2,864 6.3 -5.1°
Reaches altitude 10° 18:33:54 10° 184° (S) 1,960 5.4 -5.5°
Maximum altitude 18:38:14 80° 99° (E) 622 3.0 -6.2°
Drops below altitude 10° 18:42:34 10° 11° (N) 1,957 5.8 -6.9°
Sets 18:44:47 0° 11° (N) 2,859 6.7 -7.2°
